COSMOS 2251 DEB, 33798

Orbit data source: Space-Track

COSMOS 2251 DEB, 33798 is space debris in LEO originally from a launch on Wed, 16 Jun 1993 UTC launched from the Plesetsk Missile And Space Complex (PKMTR). The debris from Iridium 33, an American commercial communications satellite, has been tracked extensively since its accidental collision with the defunct Russian satellite Cosmos 2251 in 2009. This event, occurring at high speed in low Earth orbit (LEO), generated thousands of pieces of space debris, significantly increasing the risk of further collisions. The Iridium 33 debris cloud has impacted space traffic management and orbital debris mitigation strategies, making it a subject of ongoing study in space situational awareness.

Loading next visibility...
Identifier
33798, 1993-036AP
Orbit
LEO
Country
Flag of CISCIS
Related business
Manufacturer
Unknown
Mission
Spacecraft
Bus & Motor
Unknown
Mass
Unknown
Launch date (UTC)
1993-06-16 (33 years ago)
Launch vehicle
Unknown
Launch site
Plesetsk Missile And Space Complex (PKMTR)
Object type
Payload
Rocket body
Debris
Shape & HBR
Unknown shape, 0.1 m
Radar Cross Section
Medium (>0.1 m² and <1 m²)

Expand to show TLE details & history
Last TLE update: 22 hours ago

TLE from 22 hours ago
0 COSMOS 2251 DEB
1 33798U 93036AP  26262.47193551  .00000172  00000-0  54886-4 0  9999
2 33798  74.0312 332.8831 0090750  24.3290 348.7334 14.44861154926487
Epoch: 2026-09-19T11:19Z
TLE epoch observation values (Epoch: 2026-09-19T11:19:35.228Z)
Latitude
12.31813°
Longitude
168.16953°
Altitude
680.982 km
Speed
7.551 km/s
True Right ascension
22h 25m 47s
True Declination
12° 14' 45"
Sunlit
Object was in full shadow at epoch
Visualization orbit readout
Latitude
Unknown
Longitude
Unknown
Altitude
Unknown
Speed
Unknown
Apparent Right ascension
Unknown
Apparent Declination
Unknown
Sunlit
N/A
Visualization observer readout
Local Sidereal Time
02:37:25
Azimuth
Unknown
Elevation
Unknown
Doppler factor
Unknown
Orbital elements
Apogee altitude
804.695 km
Perigee altitude
675.499 km
Semi-major axis
7,118.234 km
Eccentricity
0.00908
Inclination
74.0312°
RAAN
332.8831°
Arg. of periapsis
24.329°
True anomaly
348.52794°
Mean anomaly
348.7334°
Eccentric anomaly
348.6309°
Mean motion
3.61397 °/min
Orbital period
99.61 mins
BSTAR
0.000054886

Documentation

Showing up to 5 results
|